Weather History for Oakdale, LA

Change the Weather History Date:

Monday, January 14, 2013

  Actual Average (KPOE) Record (KPOE)
Temperature  
Mean Temperature 42 °F -  
Max Temperature 46 °F 58 °F 75 °F (2007)
Min Temperature 37 °F 38 °F 24 °F (1997)
Degree Days  
Heating Degree Days 24    
Moisture  
Dew Point 41 °F    
Average Humidity 100    
Maximum Humidity 100    
Minimum Humidity 100    
Precipitation  
Precipitation 0.08 in - - ()
Sea Level Pressure  
Sea Level Pressure 30.15 in    
Wind  
Wind Speed 10 mph (NNE)    
Max Wind Speed 14 mph    
Max Gust Speed 22 mph    
Visibility 9 miles    
Events Rain , Thunderstorm    
Averages and records for this station are not official NWS values.
T = Trace of Precipitation, MM = Missing Value Source: NWS Daily Summary

Daily Weather History Graph

Daily Weather History Graph

Search for Another Location

Airport:

Trip Planner

Search our weather history database for the weather conditions in past years. The results will help you decide how hot, cold, wet, or windy it might be!

Date:

Astronomy

Jan. 14, 2013 Rise Set
Actual Time 7:09 AM CST 5:31 PM CST
Civil Twilight 6:42 AM CST 5:57 PM CST
Nautical Twilight 6:13 AM CST 6:26 PM CST
Astronomical Twilight 5:44 AM CST 6:55 PM CST
Moon 8:58 AM CST (1/14) 8:58 PM CST (1/14)
Length of Visible Light 11h 14m
Length of Day
10h 22m
Waxing Crescent, 11% of the Moon is Illuminated
Jan 14
Waxing Crescent
Jan 18
First Quarter
Jan 26
Full
Feb 3
Last Quarter
Feb 10
New

Hourly Weather History & Observations

Time (CST) Temp. Windchill Dew Point Humidity Pressure Visibility Wind Dir Wind Speed Gust Speed Precip Events Conditions
12:15 AM 46.4 °F 40.7 °F 46.4 °F 100% 30.15 in 10.0 mi North 12.7 mph 18.4 mph N/A   Overcast
12:35 AM 46.4 °F 41.1 °F 46.4 °F 100% 30.13 in 10.0 mi North 11.5 mph 18.4 mph N/A   Overcast
12:55 AM 44.6 °F 39.2 °F 44.6 °F 100% 30.14 in 10.0 mi NNE 10.4 mph 17.3 mph N/A   Overcast
1:15 AM 44.6 °F 38.4 °F 44.6 °F 100% 30.13 in 10.0 mi NNE 12.7 mph 17.3 mph N/A   Overcast
1:35 AM 44.6 °F 38.8 °F 44.6 °F 100% 30.12 in 10.0 mi North 11.5 mph 20.7 mph N/A   Overcast
1:55 AM 44.6 °F 38.4 °F 44.6 °F 100% 30.11 in 10.0 mi North 12.7 mph 20.7 mph N/A   Overcast
2:35 AM 44.6 °F 39.2 °F 44.6 °F 100% 30.13 in 10.0 mi North 10.4 mph 20.7 mph N/A   Overcast
2:55 AM 44.6 °F 39.7 °F 44.6 °F 100% 30.12 in 10.0 mi NNE 9.2 mph 18.4 mph N/A   Overcast
3:15 AM 44.6 °F 40.2 °F 44.6 °F 100% 30.12 in 10.0 mi NNE 8.1 mph - N/A   Overcast
3:35 AM 44.6 °F 40.2 °F 44.6 °F 100% 30.11 in 10.0 mi North 8.1 mph - N/A   Overcast
3:55 AM 44.6 °F 39.2 °F 44.6 °F 100% 30.10 in 10.0 mi North 10.4 mph 17.3 mph N/A   Overcast
4:15 AM 44.6 °F 38.8 °F 44.6 °F 100% 30.11 in 10.0 mi NNE 11.5 mph - N/A   Overcast
4:35 AM 44.6 °F 39.7 °F 44.6 °F 100% 30.10 in 10.0 mi NE 9.2 mph 17.3 mph N/A   Overcast
4:55 AM 44.6 °F 40.2 °F 44.6 °F 100% 30.09 in 10.0 mi NNE 8.1 mph 19.6 mph N/A   Overcast
5:35 AM 44.6 °F 39.7 °F 44.6 °F 100% 30.09 in 10.0 mi NNE 9.2 mph 17.3 mph N/A   Overcast
6:15 AM 42.8 °F 37.5 °F 42.8 °F 100% 30.10 in 10.0 mi North 9.2 mph - N/A   Overcast
6:35 AM 42.8 °F 37.0 °F 42.8 °F 100% 30.09 in 10.0 mi NNE 10.4 mph - N/A   Overcast
6:55 AM 42.8 °F 37.5 °F 42.8 °F 100% 30.12 in 10.0 mi NNE 9.2 mph - N/A   Overcast
7:15 AM 42.8 °F 38.6 °F 42.8 °F 100% 30.11 in 10.0 mi North 6.9 mph 16.1 mph N/A   Overcast
7:35 AM 42.8 °F 38.0 °F 42.8 °F 100% 30.13 in 5.0 mi NNE 8.1 mph - N/A   Drizzle
7:55 AM - - - N/A% 30.14 in 4.0 mi North 6.9 mph - 0.01 in Rain Rain
8:15 AM - - - N/A% 30.15 in 7.0 mi North 9.2 mph - N/A   Overcast
8:55 AM - - - N/A% 30.17 in 5.0 mi North 10.4 mph - 0.02 in Thunderstorm Unknown
9:15 AM - - - N/A% 30.17 in 5.0 mi North 6.9 mph - N/A   Light Drizzle
9:35 AM - - - N/A% 30.19 in 5.0 mi North 10.4 mph 18.4 mph N/A Rain Light Rain
9:55 AM - - - N/A% 30.19 in 4.0 mi North 10.4 mph 17.3 mph N/A   Haze
10:15 AM - - - N/A% 30.19 in 2.5 mi North 12.7 mph 19.6 mph N/A   Overcast
10:35 AM - - - N/A% 30.20 in 3.0 mi North 8.1 mph - N/A   Overcast
10:55 AM - - - N/A% 30.20 in 7.0 mi North 11.5 mph 18.4 mph N/A   Overcast
11:15 AM - - - N/A% 30.20 in 3.0 mi North 13.8 mph 19.6 mph N/A   Overcast
11:35 AM - - - N/A% 30.20 in 2.0 mi North 11.5 mph - N/A   Overcast
11:55 AM - - - N/A% 30.20 in 2.5 mi North 11.5 mph 21.9 mph 0.01 in Rain Light Rain
12:15 PM - - - N/A% 30.20 in 4.0 mi NNW 11.5 mph - 0.01 in   Light Drizzle
12:35 PM - - - N/A% 30.19 in 5.0 mi NNW 12.7 mph - 0.02 in   Haze
1:15 PM 37.4 °F 29.3 °F 37.4 °F 100% 30.18 in 10.0 mi North 12.7 mph 20.7 mph N/A   Overcast
1:35 PM 37.4 °F 30.8 °F 37.4 °F 100% 30.17 in 3.0 mi NNE 9.2 mph 21.9 mph 0.01 in Rain Rain
1:55 PM - - - N/A% 30.16 in 10.0 mi NE 8.1 mph 18.4 mph 0.01 in   Overcast
2:15 PM - - - N/A% 30.17 in 10.0 mi NNE 10.4 mph 17.3 mph N/A   Overcast
2:35 PM 39.2 °F 32.0 °F 39.2 °F 100% 30.16 in 10.0 mi North 11.5 mph 20.7 mph N/A   Overcast
2:55 PM 39.2 °F 31.6 °F 39.2 °F 100% 30.16 in 10.0 mi NNE 12.7 mph 18.4 mph N/A   Overcast
3:35 PM 37.4 °F 30.3 °F 37.4 °F 100% 30.17 in 10.0 mi North 10.4 mph 17.3 mph N/A   Overcast
3:55 PM 37.4 °F 30.8 °F 37.4 °F 100% 30.18 in 10.0 mi NNE 9.2 mph - N/A   Overcast
4:15 PM 37.4 °F 30.3 °F 37.4 °F 100% 30.18 in 10.0 mi NNE 10.4 mph 17.3 mph N/A   Overcast
4:35 PM 37.4 °F 32.1 °F 37.4 °F 100% 30.18 in 10.0 mi NNE 6.9 mph - N/A   Overcast
4:55 PM 37.4 °F 31.4 °F 37.4 °F 100% 30.19 in 10.0 mi NNE 8.1 mph - N/A   Overcast
5:15 PM 37.4 °F 29.8 °F 37.4 °F 100% 30.19 in 10.0 mi NNE 11.5 mph 16.1 mph N/A   Overcast
5:35 PM 37.4 °F 31.4 °F 37.4 °F 100% 30.19 in 10.0 mi NNE 8.1 mph - N/A   Overcast
5:55 PM 37.4 °F 32.1 °F 37.4 °F 100% 30.19 in 10.0 mi North 6.9 mph - 0.01 in   Overcast
6:15 PM 37.4 °F 31.4 °F 37.4 °F 100% 30.19 in 10.0 mi North 8.1 mph - N/A   Overcast
6:35 PM 39.2 °F 33.0 °F 39.2 °F 100% 30.19 in 10.0 mi NNE 9.2 mph 16.1 mph N/A   Overcast
6:55 PM 39.2 °F 33.0 °F 39.2 °F 100% 30.20 in 10.0 mi NNE 9.2 mph - N/A   Overcast
7:15 PM 39.2 °F 34.2 °F 39.2 °F 100% 30.18 in 10.0 mi NNE 6.9 mph - N/A   Overcast
7:35 PM 39.2 °F 33.0 °F 39.2 °F 100% 30.16 in 10.0 mi NE 9.2 mph - N/A   Overcast
7:55 PM 39.2 °F 33.0 °F 39.2 °F 100% 30.17 in 10.0 mi NNE 9.2 mph - N/A   Overcast
8:15 PM 39.2 °F 33.6 °F 39.2 °F 100% 30.16 in 10.0 mi NNE 8.1 mph - N/A   Overcast
8:35 PM 39.2 °F 35.0 °F 39.2 °F 100% 30.16 in 10.0 mi North 5.8 mph - N/A   Overcast
8:55 PM 39.2 °F 34.2 °F 39.2 °F 100% 30.15 in 10.0 mi NNE 6.9 mph - N/A   Overcast
9:15 PM 39.2 °F 32.5 °F 39.2 °F 100% 30.15 in 10.0 mi North 10.4 mph - N/A   Overcast
9:35 PM 39.2 °F 32.5 °F 39.2 °F 100% 30.15 in 10.0 mi NNE 10.4 mph - N/A   Overcast
9:55 PM 39.2 °F 33.0 °F 39.2 °F 100% 30.13 in 10.0 mi NNE 9.2 mph 16.1 mph N/A   Overcast
10:15 PM 39.2 °F 33.0 °F 39.2 °F 100% 30.13 in 10.0 mi NE 9.2 mph - N/A   Overcast
10:35 PM 39.2 °F 33.0 °F 39.2 °F 100% 30.12 in 10.0 mi NNE 9.2 mph - N/A   Overcast
10:55 PM 39.2 °F 33.6 °F 39.2 °F 100% 30.13 in 10.0 mi NNE 8.1 mph - N/A   Overcast
11:15 PM 39.2 °F 33.0 °F 39.2 °F 100% 30.11 in 10.0 mi NNE 9.2 mph - N/A   Overcast
11:35 PM 39.2 °F 33.6 °F 39.2 °F 100% 30.12 in 10.0 mi NNE 8.1 mph - N/A   Overcast
11:55 PM 39.2 °F 34.2 °F 39.2 °F 100% 30.11 in 10.0 mi NNE 6.9 mph - N/A   Overcast